Weather History for K4O4 - November, 2012

Change the Weather History Date:

Friday, November 23, 2012

  Actual Average (KDEQ) Record (KDEQ)
Temperature  
Mean Temperature 50 °F 49 °F  
Max Temperature 64 °F 62 °F 77 °F (2005)
Min Temperature 35 °F 36 °F 19 °F (1975)
Degree Days  
Heating Degree Days 16 16  
Month to date heating degree days 268  
Since 1 July heating degree days 401  
Cooling Degree Days 0 0  
Month to date cooling degree days 5  
Year to date cooling degree days 1939  
Moisture  
Dew Point 33 °F    
Average Humidity 52    
Maximum Humidity 94    
Minimum Humidity 20    
Precipitation  
Precipitation 0.02 in 0.15 in 4.23 in (1940)
Month to date precipitation 3.87  
Year to date precipitation 43.59  
Snow  
Snow 0.00 in - - ()
Month to date snowfall  
Since 1 July snowfall  
Since 1 September snowfall  
Snow Depth -    
Sea Level Pressure  
Sea Level Pressure 30.32 in    
Wind  
Wind Speed 9 mph (North)    
Max Wind Speed 21 mph    
Max Gust Speed 30 mph    
Visibility 10 miles    
Events      
T = Trace of Precipitation, MM = Missing Value Source: NWS Daily Summary

Daily Weather History Graph

Daily Weather History Graph

Search for Another Location

Airport or City:

Trip Planner

Search our weather history database for the weather conditions in past years. The results will help you decide how hot, cold, wet, or windy it might be!

Date:

Astronomy

Nov. 23, 2012 Rise Set
Actual Time 6:59 AM CST 5:12 PM CST
Civil Twilight 6:32 AM CST 5:38 PM CST
Nautical Twilight 6:02 AM CST 6:09 PM CST
Astronomical Twilight 5:32 AM CST 6:39 PM CST
Moon 2:17 PM CST (11/23) 2:30 AM CST (11/23)
Length of Visible Light 11h 06m
Length of Day
10h 12m
Waxing Gibbous, 80% of the Moon is Illuminated
Nov 23
Waxing Gibbous
Nov 28
Full
Dec 6
Last Quarter
Dec 13
New
Dec 19
First Quarter

Hourly Weather History & Observations

Time (CST) Temp. Windchill Dew Point Humidity Pressure Visibility Wind Dir Wind Speed Gust Speed Precip Events Conditions
12:15 AM 57.2 °F - 53.6 °F 88% 30.13 in 10.0 mi East 5.8 mph - 0.01 in   Mostly Cloudy
12:35 AM 57.2 °F - 53.6 °F 88% 30.14 in 10.0 mi East 5.8 mph - 0.01 in   Mostly Cloudy
12:55 AM 57.2 °F - 53.6 °F 88% 30.14 in 10.0 mi East 5.8 mph - 0.01 in   Mostly Cloudy
1:15 AM 57.2 °F - 53.6 °F 88% 30.14 in 10.0 mi NE 4.6 mph - N/A   Mostly Cloudy
1:55 AM 55.4 °F - 53.6 °F 94% 30.15 in 10.0 mi East 4.6 mph - N/A   Scattered Clouds
2:15 AM 55.4 °F - 53.6 °F 94% 30.15 in 10.0 mi ENE 4.6 mph - N/A   Scattered Clouds
2:35 AM 55.4 °F - 51.8 °F 88% 30.16 in 5.0 mi ENE 6.9 mph - N/A   Scattered Clouds
2:55 AM 55.4 °F - 53.6 °F 94% 30.18 in 5.0 mi North 10.4 mph - N/A   Mostly Cloudy
3:15 AM 55.4 °F - 53.6 °F 94% 30.19 in 4.0 mi North 5.8 mph - N/A   Scattered Clouds
3:35 AM 55.4 °F - 53.6 °F 94% 30.19 in 5.0 mi NNE 3.5 mph - N/A   Mostly Cloudy
3:55 AM 55.4 °F - 53.6 °F 94% 30.19 in 7.0 mi Calm Calm - N/A   Mostly Cloudy
4:15 AM 55.4 °F - 53.6 °F 94% 30.19 in 7.0 mi East 3.5 mph - N/A   Mostly Cloudy
4:35 AM 55.4 °F - 53.6 °F 94% 30.19 in 7.0 mi ENE 3.5 mph - N/A   Scattered Clouds
4:55 AM 55.4 °F - 53.6 °F 94% 30.20 in 7.0 mi North 8.1 mph - N/A   Mostly Cloudy
5:15 AM 55.4 °F - 53.6 °F 94% 30.21 in 7.0 mi North 9.2 mph - N/A   Mostly Cloudy
5:35 AM 55.4 °F - 53.6 °F 94% 30.22 in 10.0 mi North 10.4 mph - 0.01 in   Mostly Cloudy
5:55 AM 55.4 °F - 53.6 °F 94% 30.23 in 10.0 mi North 12.7 mph 19.6 mph 0.01 in   Mostly Cloudy
6:15 AM 55.4 °F - 51.8 °F 88% 30.24 in 10.0 mi North 15.0 mph 23.0 mph N/A   Scattered Clouds
6:35 AM 55.4 °F - 46.4 °F 72% 30.26 in 10.0 mi North 12.7 mph 19.6 mph N/A   Mostly Cloudy
7:15 AM 53.6 °F - 44.6 °F 72% 30.29 in 10.0 mi North 8.1 mph - N/A   Scattered Clouds
7:35 AM 51.8 °F - 42.8 °F 71% 30.30 in 10.0 mi North 10.4 mph - N/A   Clear
7:55 AM 51.8 °F - 41.0 °F 67% 30.32 in 10.0 mi North 10.4 mph - N/A   Clear
8:15 AM 53.6 °F - 41.0 °F 62% 30.33 in 10.0 mi NNE 10.4 mph - N/A   Scattered Clouds
8:35 AM 55.4 °F - 37.4 °F 51% 30.34 in 10.0 mi NNE 12.7 mph 18.4 mph N/A   Clear
8:55 AM 55.4 °F - 33.8 °F 44% 30.35 in 10.0 mi North 11.5 mph 20.7 mph N/A   Clear
9:15 AM 57.2 °F - 32.0 °F 38% 30.37 in 10.0 mi NNE 10.4 mph 17.3 mph N/A   Clear
9:35 AM 59.0 °F - 32.0 °F 36% 30.37 in 10.0 mi North 12.7 mph 19.6 mph N/A   Clear
9:55 AM 59.0 °F - 30.2 °F 34% 30.38 in 10.0 mi North 17.3 mph 21.9 mph N/A   Clear
10:15 AM 60.8 °F - 28.4 °F 29% 30.39 in 10.0 mi North 17.3 mph 21.9 mph N/A   Clear
10:35 AM 60.8 °F - 26.6 °F 27% 30.39 in 10.0 mi North 18.4 mph 29.9 mph N/A   Clear
10:55 AM 60.8 °F - 24.8 °F 25% 30.39 in 10.0 mi North 16.1 mph 26.5 mph N/A   Clear
11:15 AM 62.6 °F - 26.6 °F 26% 30.39 in 10.0 mi North 20.7 mph 25.3 mph N/A   Clear
11:35 AM 62.6 °F - 26.6 °F 26% 30.39 in 10.0 mi North 15.0 mph 23.0 mph N/A   Clear
11:55 AM 62.6 °F - 26.6 °F 26% 30.38 in 10.0 mi NNW 16.1 mph 20.7 mph N/A   Clear
12:15 PM 64.4 °F - 26.6 °F 24% 30.37 in 10.0 mi North 15.0 mph 20.7 mph N/A   Clear
12:35 PM 64.4 °F - 26.6 °F 24% 30.37 in 10.0 mi North 17.3 mph 26.5 mph N/A   Clear
12:55 PM 62.6 °F - 26.6 °F 26% 30.36 in 10.0 mi North 16.1 mph 24.2 mph N/A   Clear
1:15 PM 62.6 °F - 26.6 °F 26% 30.36 in 10.0 mi North 18.4 mph 23.0 mph N/A   Clear
1:35 PM 62.6 °F - 24.8 °F 24% 30.36 in 10.0 mi North 15.0 mph - N/A   Clear
1:55 PM 62.6 °F - 21.2 °F 20% 30.35 in 10.0 mi NNW 17.3 mph 23.0 mph N/A   Clear
2:15 PM 62.6 °F - 21.2 °F 20% 30.35 in 10.0 mi NNW 17.3 mph 24.2 mph N/A   Clear
2:35 PM 62.6 °F - 21.2 °F 20% 30.36 in 10.0 mi North 20.7 mph 29.9 mph N/A   Clear
2:55 PM 60.8 °F - 21.2 °F 22% 30.36 in 10.0 mi North 16.1 mph 23.0 mph N/A   Clear
3:15 PM 60.8 °F - 23.0 °F 23% 30.36 in 10.0 mi North 15.0 mph 20.7 mph N/A   Clear
3:35 PM 60.8 °F - 23.0 °F 23% 30.36 in 10.0 mi North 13.8 mph - N/A   Clear
3:55 PM 60.8 °F - 23.0 °F 23% 30.36 in 10.0 mi North 13.8 mph 17.3 mph N/A   Clear
4:15 PM 59.0 °F - 23.0 °F 25% 30.36 in 10.0 mi NNW 15.0 mph 19.6 mph N/A   Clear
4:35 PM 57.2 °F - 21.2 °F 25% 30.37 in 10.0 mi North 13.8 mph - N/A   Clear
4:55 PM 55.4 °F - 19.4 °F 25% 30.36 in 10.0 mi North 12.7 mph 25.3 mph N/A   Clear
5:15 PM 53.6 °F - 21.2 °F 28% 30.37 in 10.0 mi NNW 8.1 mph - N/A   Clear
5:35 PM 50.0 °F - 21.2 °F 32% 30.37 in 10.0 mi North 8.1 mph - N/A   Clear
5:55 PM 50.0 °F - 21.2 °F 32% 30.38 in 10.0 mi North 9.2 mph - N/A   Clear
6:35 PM 46.4 °F 42.4 °F 21.2 °F 37% 30.39 in 10.0 mi North 8.1 mph - N/A   Clear
6:55 PM 44.6 °F 40.2 °F 21.2 °F 39% 30.39 in 10.0 mi North 8.1 mph - N/A   Clear
7:15 PM 44.6 °F 41.4 °F 21.2 °F 39% 30.40 in 10.0 mi North 5.8 mph - N/A   Clear
7:35 PM 44.6 °F 39.2 °F 21.2 °F 39% 30.41 in 10.0 mi North 10.4 mph 16.1 mph N/A   Clear
7:55 PM 44.6 °F 38.4 °F 21.2 °F 39% 30.41 in 10.0 mi NNW 12.7 mph 20.7 mph N/A   Clear
8:15 PM 44.6 °F 39.7 °F 21.2 °F 39% 30.41 in 10.0 mi North 9.2 mph - N/A   Clear
8:35 PM 42.8 °F 38.6 °F 21.2 °F 42% 30.41 in 10.0 mi North 6.9 mph - N/A   Clear
8:55 PM 41.0 °F 39.0 °F 21.2 °F 45% 30.42 in 10.0 mi North 3.5 mph - N/A   Clear
9:15 PM 41.0 °F 36.4 °F 21.2 °F 45% 30.42 in 10.0 mi NNW 6.9 mph - N/A   Clear
9:35 PM 39.2 °F 35.0 °F 21.2 °F 49% 30.42 in 10.0 mi North 5.8 mph - N/A   Clear
9:55 PM 37.4 °F 31.4 °F 21.2 °F 52% 30.42 in 10.0 mi NNW 8.1 mph - N/A   Clear
10:15 PM 37.4 °F 30.8 °F 21.2 °F 52% 30.42 in 10.0 mi North 9.2 mph - N/A   Clear
10:55 PM 37.4 °F 32.8 °F 21.2 °F 52% 30.41 in 10.0 mi North 5.8 mph - N/A   Clear
11:15 PM 35.6 °F 29.9 °F 21.2 °F 56% 30.41 in 10.0 mi North 6.9 mph - N/A   Clear
11:35 PM 35.6 °F 29.9 °F 21.2 °F 56% 30.41 in 10.0 mi North 6.9 mph - N/A   Clear
11:55 PM 35.6 °F 31.7 °F 21.2 °F 56% 30.40 in 10.0 mi North 4.6 mph - N/A   Clear